Weather History for KDRO - October, 2012

Change the Weather History Date:

Thursday, October 18, 2012

  Actual Average Record
Temperature  
Mean Temperature 49 °F 46 °F  
Max Temperature 73 °F 62 °F 80 °F (1988)
Min Temperature 25 °F 30 °F 18 °F (1999)
Degree Days  
Heating Degree Days 16 19  
Month to date heating degree days 240 281  
Since 1 July heating degree days 379 505  
Cooling Degree Days 0 0  
Month to date cooling degree days 0 0  
Year to date cooling degree days 477 243  
Moisture  
Dew Point 8 °F    
Average Humidity 28    
Maximum Humidity 46    
Minimum Humidity 9    
Precipitation  
Precipitation 0.00 in 0.04 in 0.45 in (2005)
Month to date precipitation 0.10 0.87  
Year to date precipitation 5.81 12.75  
Sea Level Pressure  
Sea Level Pressure 30.07 in    
Wind  
Wind Speed 6 mph (ENE)    
Max Wind Speed 14 mph    
Max Gust Speed 20 mph    
Visibility 10 miles    
Events      
T = Trace of Precipitation, MM = Missing Value Source: NWS Daily Summary

Daily Weather History Graph

Daily Weather History Graph

Search for Another Location

Airport or City:

Trip Planner

Search our weather history database for the weather conditions in past years. The results will help you decide how hot, cold, wet, or windy it might be!

Date:

Astronomy

Oct. 18, 2012 Rise Set
Actual Time 7:22 AM MDT 6:29 PM MDT
Civil Twilight 6:55 AM MDT 6:55 PM MDT
Nautical Twilight 6:25 AM MDT 7:25 PM MDT
Astronomical Twilight 5:55 AM MDT 7:56 PM MDT
Moon 11:02 AM MDT (10/18) 9:11 PM MDT (10/18)
Length of Visible Light 11h 59m
Length of Day
11h 07m
Waxing Crescent, 15% of the Moon is Illuminated
Oct 18
Waxing Crescent
Oct 21
First Quarter
Oct 29
Full
Nov 6
Last Quarter
Nov 13
New

Hourly Weather History & Observations

Time (MDT) Temp. Windchill Dew Point Humidity Pressure Visibility Wind Dir Wind Speed Gust Speed Precip Events Conditions
12:53 AM 41.0 °F 38.0 °F -0.9 °F 17% 29.99 in 10.0 mi West 4.6 mph - N/A   Clear
1:53 AM 39.9 °F 34.5 °F -0.0 °F 19% 30.01 in 10.0 mi West 8.1 mph - N/A   Clear
2:53 AM 39.9 °F 37.8 °F 1.0 °F 20% 30.02 in 10.0 mi West 3.5 mph - N/A   Clear
3:53 AM 39.0 °F 34.0 °F 1.0 °F 20% 30.03 in 10.0 mi SW 6.9 mph - N/A   Clear
4:53 AM 35.1 °F 29.3 °F 3.9 °F 27% 30.06 in 10.0 mi East 6.9 mph - N/A   Clear
5:53 AM 30.0 °F 26.5 °F 8.1 °F 40% 30.11 in 10.0 mi ENE 3.5 mph - N/A   Clear
6:53 AM 25.0 °F 19.3 °F 6.1 °F 45% 30.16 in 10.0 mi ENE 4.6 mph - N/A   Clear
7:53 AM 28.0 °F 24.2 °F 7.0 °F 41% 30.18 in 10.0 mi ENE 3.5 mph - N/A   Clear
8:53 AM 37.0 °F 31.6 °F 9.0 °F 31% 30.17 in 10.0 mi East 6.9 mph - N/A   Clear
9:53 AM 46.0 °F 43.9 °F 7.0 °F 20% 30.14 in 10.0 mi East 4.6 mph - N/A   Clear
10:53 AM 50.0 °F - 5.0 °F 16% 30.14 in 10.0 mi Calm Calm - N/A   Clear
11:53 AM 55.0 °F - 5.0 °F 13% 30.12 in 10.0 mi Calm Calm - N/A   Clear
1:53 PM 64.9 °F - 7.0 °F 10% 30.01 in 10.0 mi Variable 4.6 mph - N/A   Clear
2:53 PM 69.1 °F - 8.1 °F 9% 29.96 in 10.0 mi SSW 9.2 mph - N/A   Clear
3:53 PM 72.0 °F - 12.0 °F 10% 29.93 in 10.0 mi SSW 10.4 mph - N/A   Clear
4:53 PM 72.0 °F - 10.9 °F 10% 29.94 in 10.0 mi North 5.8 mph - N/A   Clear
5:53 PM 70.0 °F - 12.9 °F 11% 29.99 in 10.0 mi Calm Calm - N/A   Clear
6:53 PM 60.1 °F - 14.0 °F 16% 30.06 in 10.0 mi NNE 8.1 mph - N/A   Clear
7:53 PM 55.0 °F - 12.0 °F 18% 30.10 in 10.0 mi NNE 6.9 mph - N/A   Clear
8:53 PM 48.9 °F - 12.9 °F 24% 30.12 in 10.0 mi East 4.6 mph - N/A   Clear
9:53 PM 44.1 °F 40.1 °F 10.9 °F 26% 30.11 in 10.0 mi ENE 6.9 mph - N/A   Clear
10:53 PM 43.0 °F 39.5 °F 12.9 °F 30% 30.10 in 10.0 mi East 5.8 mph - N/A   Clear
11:53 PM 41.0 °F 35.8 °F 14.0 °F 33% 30.10 in 10.0 mi NNE 8.1 mph - N/A   Clear